STARLINK-38195, 100196

Orbit data source: Space-Track

STARLINK-38195, 100196 is a payload satellite owned by SpaceX/Seattle (US) in SSO that was launched on Sat, 01 Aug 2026 UTC launched from the Air Force Western Test Range (AFWTR). Payload-class satellites include a variety of spacecraft equipped with specific instruments for various scientific and technological missions. These include communications satellites like Starlink; space stations such as the ISS; scientific satellites like the Hubble; Earth observation satellites from companies like Planet Labs, Umbra, and HawkEye 360; GPS; miniature CubeSats for education and research; and military/defense satellites.

Loading next visibility...
Identifier
100196, 2026-175T
Orbit
SSO
Country
Flag of USUS
Related business
Manufacturer
SpaceX/Seattle
Mission
Operational spacecraft
Bus & Motor
STARLINK V2MO, Unknown motor
Mass
575 kg wet, ~530 kg dry
Launch date (UTC)
2026-08-01 (2 months ago)
Launch vehicle
Unknown
Launch site
Air Force Western Test Range (AFWTR)
Object type
Payload
Rocket body
Debris
Shape & HBR
BOX + PAN, 17.7 m
Radar Cross Section
Large (>1 m²)

Expand to show TLE details & history
Last TLE update: 7 hours ago

TLE from 7 hours ago
0 STARLINK-38195
1 A0196U 26175T   26263.96642023 -.00463854  00000-0 -53179-2 0  9997
2 A0196  97.2839 106.4884 0002844  45.8642 314.2850 15.63479631  9258
Epoch: 2026-09-20T23:11Z
TLE epoch observation values (Epoch: 2026-09-20T23:11:38.707Z)
Latitude
-0.00009°
Longitude
118.72411°
Altitude
379.426 km
Speed
7.683 km/s
True Right ascension
07h 05m 57s
True Declination
0° 00' 00"
Sunlit
Object was in daylight at epoch
Visualization orbit readout
Latitude
Unknown
Longitude
Unknown
Altitude
Unknown
Speed
Unknown
Apparent Right ascension
Unknown
Apparent Declination
Unknown
Sunlit
N/A
Visualization observer readout
Local Sidereal Time
23:14:02
Azimuth
Unknown
Elevation
Unknown
Doppler factor
Unknown
Orbital elements
Apogee altitude
376.438 km
Perigee altitude
372.597 km
Semi-major axis
6,752.655 km
Eccentricity
0.00028
Inclination
97.2839°
RAAN
106.4884°
Arg. of periapsis
45.8642°
True anomaly
314.26166°
Mean anomaly
314.285°
Eccentric anomaly
314.27333°
Mean motion
3.91139 °/min
Orbital period
92.04 mins
BSTAR
-0.0053179
Loading maneuver chart data...
Computing Atmospheric mass density...
Loading historical data...
Loading historical data...
Loading historical data...
Loading historical data...
Loading historical data...
Loading historical data...
Loading historical data...

Documentation

Showing up to 5 results
|